#timestamp,LO_Frequency,Hit,StdDev 
1600527615.8,286047000.4,P
1600527635.7,286047004.2,N
1600527655.5,286047004.5,N
1600527675.3,286047006.7,N
1600527695.2,286047009.6,N
1600527715.0,286047013.2,N
1600527715.9,286047013.2,N
1600527735.8,286047014.9,N
1600527755.6,286047016.4,N
1600527775.4,286047018.0,N
1600527795.3,286047019.2,N
1600527815.1,286047018.9,N
1600527835.9,286047021.3,N
1600527855.7,286047026.4,Y
1600527875.5,286047016.4,P
1600527895.4,286047017.3,P
1600527915.2,286047020.5,P
1600527935.1,286047026.6,Y
1600527936.0,286047026.6,P
1600527955.8,286047009.4,N
1600527975.6,286047012.2,N
1600527995.5,286047013.5,N
1600528015.3,286047015.2,N
1600528035.1,286047015.7,N
1600528055.9,286047018.4,Y
1600528075.7,286047005.3,P
1600528095.6,286047004.8,N
1600528115.4,286047005.3,N
1600528135.2,286047005.7,N
1600528155.1,286047006.0,N
1600528156.0,286047006.0,N
1600528175.8,286047005.0,N
1600528195.7,286047006.1,N
1600528215.5,286047008.1,N
1600528235.3,286047010.4,Y
1600528255.2,286047004.3,P
1600528275.0,286047005.7,P
1600528275.9,286047005.7,P
1600528295.8,286047007.5,Y
1600528315.6,286047000.9,P
1600528335.4,286046998.2,N
1600528355.3,286046996.6,N
1600528375.1,286046994.9,N
1600528395.8,286046997.0,N
1600528415.7,286046995.5,N
1600528435.5,286046998.0,N
1600528455.4,286047000.8,N
1600528475.2,286046997.0,N
1600528495.0,286046995.3,N
1600528495.9,286046995.3,N
1600528515.8,286046992.9,N
1600528535.6,286046990.8,N
1600528555.4,286046988.9,Y
1600528575.3,286046991.3,P
1600528595.1,286046990.9,P
1600528615.9,286046988.7,P
1600528635.7,286046991.5,N
1600528655.5,286046985.7,Y
1600528675.4,286046994.0,P
1600528695.2,286046993.5,P
1600528715.1,286046994.3,P
1600528716.0,286046994.3,Y
1600528735.8,286046998.2,P
1600528755.6,286046998.8,N
1600528775.5,286046998.0,N
1600528795.3,286046997.0,N
1600528815.2,286046998.5,N
1600528835.9,286047000.0,N
1600528855.7,286047002.0,N
1600528875.6,286047004.1,N
1600528895.4,286047001.8,N
1600528915.2,286047001.7,N
1600528935.1,286047002.8,N
1600528936.0,286047002.8,N
1600528955.8,286047002.7,N
1600528975.7,286046998.1,N
1600528995.5,286046997.2,N
1600529015.3,286046999.1,N
1600529035.2,286046997.9,N
1600529055.0,286046996.0,N
1600529055.9,286046996.0,N
1600529075.7,286046994.2,N
1600529095.6,286046990.9,Y
1600529115.4,286046992.8,P
1600529135.3,286046994.2,N
1600529155.1,286046993.7,N
1600529175.8,286046993.9,N
1600529195.7,286046995.2,N
1600529215.5,286046992.0,Y
1600529235.4,286046997.4,P
1600529255.2,286046996.1,P
1600529275.0,286046994.4,P
1600529275.9,286046994.4,Y
1600529295.8,286046993.3,P
1600529315.6,286046995.4,P
1600529335.4,286046995.7,P
1600529355.3,286046997.6,N
1600529375.1,286046999.5,N
1600529395.9,286046998.3,N
1600529415.7,286046997.5,N
1600529435.5,286046998.2,N
1600529455.4,286046999.9,N
1600529475.2,286047001.2,N
1600529495.1,286046999.1,N
1600529496.0,286046999.1,N
1600529515.8,286046995.1,N
1600529535.6,286046992.3,Y
1600529555.5,286046997.6,P
1600529575.3,286046997.5,P
1600529595.1,286047001.2,P
1600529615.9,286047000.7,N
1600529635.7,286047001.2,N
1600529655.6,286046996.6,N
1600529675.4,286046997.6,N
1600529695.2,286046994.9,N
1600529715.1,286046997.0,N
1600529716.0,286046997.0,N
1600529735.8,286046998.2,N
1600529755.6,286047000.7,N
1600529775.5,286047002.5,N
1600529795.3,286047001.8,N
1600529815.2,286047003.2,N
1600529835.9,286047005.1,N
1600529855.7,286047004.0,N
1600529875.6,286047004.4,N
1600529895.4,286047002.6,N
1600529915.2,286047002.2,N
1600529935.1,286047000.1,N
1600529936.0,286047000.1,N
1600529955.8,286047002.6,N
1600529975.7,286046999.9,N
1600529995.5,286047000.6,N
1600530015.3,286047001.6,N
1600530035.2,286047003.4,N
1600530055.0,286047005.2,N
1600530055.9,286047005.2,N
1600530075.8,286047007.3,N
1600530095.6,286047008.7,N
1600530115.4,286047009.5,N
1600530135.3,286047009.9,N
1600530155.1,286047009.8,N
1600530175.8,286047010.2,N
1600530195.7,286047008.6,N
1600530215.5,286047007.6,N
1600530235.4,286047002.9,N
1600530255.2,286047003.1,N
1600530275.0,286047007.0,N
1600530275.9,286047007.0,N
1600530295.8,286047008.8,N
1600530315.6,286047006.2,N
1600530335.4,286047008.9,N
1600530355.3,286047008.3,N
1600530375.1,286047012.4,Y
1600530395.9,286047005.6,P
1600530415.7,286047005.6,P
1600530435.5,286047001.3,P
1600530455.4,286047001.4,N
1600530475.2,286047001.9,N
1600530495.1,286047003.9,N
1600530496.0,286047003.9,N
1600530515.8,286047005.8,Y
1600530535.6,286047001.4,P
1600530555.5,286047001.7,N
1600530575.3,286047004.4,P
1600530595.1,286047001.8,N
1600530615.9,286047004.1,Y
1600530635.7,286047001.0,P
1600530655.6,286047000.3,N
1600530675.4,286047002.8,N
1600530695.2,286047002.2,N
1600530715.1,286047004.4,Y
1600530716.0,286047004.4,P
1600530735.8,286047003.9,N
1600530755.7,286047002.8,N
1600530775.5,286047001.2,N
1600530795.3,286046997.3,N
1600530815.2,286046997.6,N
1600530835.0,286046998.0,N
1600530835.9,286046998.0,N
1600530855.7,286046999.3,N
1600530875.6,286047000.5,N
1600530895.4,286046997.1,N
1600530915.3,286046997.7,N
1600530935.1,286046997.0,N
1600530985.9,286047001.2,E
1600530995.8,286047001.2,N
1600531015.6,286046999.0,P
1600531035.5,286047000.7,N
1600531055.3,286046998.7,N
1600531075.1,286046995.1,Y
1600531095.9,286046995.6,P
1600531115.7,286046996.1,N
1600531135.6,286046995.5,N
1600531155.4,286046995.0,N
1600531175.2,286046997.5,N
1600531195.1,286046997.6,N
1600531196.0,286046997.6,N
